STARLINK-11555, 62915

Orbit data source: Space-Track

STARLINK-11555, 62915 is a payload satellite owned by SpaceX/Seattle (US) in LEO that was launched on Sat, 08 Feb 2025 UTC via an FALCON 9 launch vehicle from the Air Force Eastern Test Range (AFETR). Payload-class satellites include a variety of spacecraft equipped with specific instruments for various scientific and technological missions. These include communications satellites like Starlink; space stations such as the ISS; scientific satellites like the Hubble; Earth observation satellites from companies like Planet Labs, Umbra, and HawkEye 360; GPS; miniature CubeSats for education and research; and military/defense satellites.

Loading next visibility...
Identifier
62915, 2025-027J
Orbit
LEO
Last TLE update
6 hours ago
Origin
Manufacturer
SpaceX/Seattle
Mission
Operational Commercial Communications
Bus & Motor
STARLINK V2M, Unknown motor
Mass
730 kg wet, ~700 kg dry
Launch date (UTC)
2025-02-08 (5 months ago)
Launch vehicle
FALCON 9
Launch site
Air Force Eastern Test Range (AFETR)
Object type
Payload
Rocket body
Debris
Shape & HBR
Box + 2 Pan, 29 m
Radar Cross Section
36.964 m², Large (>1 m²)

Expand to show TLE details & history

TLE from 6 hours ago
0 STARLINK-11555
1 62915U 25027J   25182.05663421  .00164029  00000-0  12545-2 0  9995
2 62915  43.0010  64.7058 0001906 278.5464  81.5188 15.70882177 23614
Epoch: 2025-07-01T01:21Z
TLE epoch observation values (Epoch: 2025-07-01T01:21:33.195Z)
Latitude
-0.00001°
Longitude
124.95992°
Altitude
355.957 km
Speed
7.698 km/s
True Right ascension
04h 18m 49s
True Declination
0° 00' 00"
Sunlit
Object was in daylight at epoch
Visualization orbit readout
Latitude
-43.12117°
Longitude
36.56935°
Altitude
368.184 km
Speed
7.69 km/s
Apparent Right ascension
02h 32m 50s
Apparent Declination
-62° 08' 54"
Sunlit
Object is in full shadow
Visualization observer readout
Local Sidereal Time
18:43:20
Azimuth
142.481° SSE
Elevation
-47.063°
Doppler factor
1
Orbital elements
Apogee altitude
359.64 km
Perigee altitude
357.072 km
Semi-major axis
6,736.493 km
Eccentricity
0.00019
Inclination
43.001°
RAAN
64.7058°
Arg. of periapsis
278.5464°
True anomaly
Unknown
Mean anomaly
81.5188°
Eccentric anomaly
Unknown
Mean motion
3.92548 °/min
Orbital period
91.71 mins
BSTAR
0.0012545
Loading maneuver chart data...
Loading SW <> Apogee altitude chart data...
Loading historical data...
Loading historical data...
Loading historical data...
Loading historical data...
Loading historical data...
Loading historical data...
Loading historical data...

STARLINK-11555 Visibility forecast

Observer location: undefined°, undefined°

Span
Click to sort rows by Start time (UTC) header in descending order
Start Az.
Max El. time (UTC)
Max El. Az.
Max El.
End time (UTC)
End Az.
5 mins2025-07-01 19:53:26.091Z231.02° WSW2025-07-01 19:56:26.091Z136.742° SSE36.386°2025-07-01 19:58:26.091Z82.48° E
4 mins2025-07-01 23:07:26.091Z306.827° NW2025-07-01 23:08:26.091Z351.283° N37.417°2025-07-01 23:11:26.091Z87.149° E
4 mins2025-07-02 00:43:26.091Z263.253° W2025-07-02 00:44:26.091Z224.898° SW33.833°2025-07-02 00:47:26.091Z132.767° SE
|